Weather History for White Mountain, AK

Change the Weather History Date:

Tuesday, May 28, 2013

  Actual Average (PAKK) Record (PAKK)
Temperature  
Mean Temperature 53 °F -  
Max Temperature 64 °F 49 °F 75 °F (2011)
Min Temperature 42 °F 34 °F 28 °F (1999)
Degree Days  
Heating Degree Days 12    
Growing Degree Days 3 (Base 50)    
Moisture  
Dew Point 55 °F    
Average Humidity 85    
Maximum Humidity 100    
Minimum Humidity 53    
Precipitation  
Precipitation 0.00 in - - ()
Sea Level Pressure  
Sea Level Pressure 29.93 in    
Wind  
Wind Speed 11 mph (NNW)    
Max Wind Speed 14 mph    
Max Gust Speed -    
Visibility 10 miles    
Events      
Averages and records for this station are not official NWS values.
T = Trace of Precipitation, MM = Missing Value Source: NWS Daily Summary

Daily Weather History Graph

Daily Weather History Graph

Search for Another Location

Airport:

Trip Planner

Search our weather history database for the weather conditions in past years. The results will help you decide how hot, cold, wet, or windy it might be!

Date:

Astronomy

May. 28, 2013 Rise Set
Actual Time 4:48 AM AKDT 12:55 AM AKDT
Civil Twilight 3:23 AM AKDT Sun does not rise
Nautical Twilight Sun does not rise Sun does not rise
Astronomical Twilight Sun does not rise Sun does not rise
Moon 2:45 AM AKDT (5/28) 9:53 AM AKDT (5/28)
Length of Visible Light 24h 00m
Length of Day
20h 07m
Waning Gibbous, 81% of the Moon is Illuminated
May 28
Waning Gibbous
May 31
Last Quarter
Jun 8
New
Jun 16
First Quarter
Jun 23
Full

Hourly Weather History & Observations

Time (AKDT) Temp. Windchill Dew Point Humidity Pressure Visibility Wind Dir Wind Speed Gust Speed Precip Events Conditions
12:58 AM 48.9 °F - - N/A% 29.90 in 10.0 mi North 11.5 mph - N/A   Clear
1:58 AM 46.9 °F - - N/A% 29.91 in 10.0 mi North 12.7 mph - N/A   Clear
2:58 AM 44.1 °F 38.1 °F - N/A% 29.91 in 10.0 mi North 11.5 mph - N/A   Clear
3:58 AM 44.1 °F 38.6 °F - N/A% 29.91 in 10.0 mi North 10.4 mph - N/A   Clear
4:58 AM 43.0 °F 36.0 °F - N/A% 29.91 in 10.0 mi North 13.8 mph - N/A   Clear
5:58 AM 42.1 °F 36.1 °F - N/A% 29.92 in 10.0 mi North 10.4 mph - N/A   Clear
6:58 AM 43.0 °F 37.7 °F - N/A% 29.92 in 10.0 mi North 9.2 mph - N/A   Clear
7:58 AM 44.1 °F 38.6 °F - N/A% 29.93 in 10.0 mi North 10.4 mph - N/A   Clear
8:58 AM 48.0 °F - - N/A% 29.94 in 9.0 mi NNW 12.7 mph - N/A   Clear
9:58 AM 50.0 °F - - N/A% 29.94 in 10.0 mi NNW 12.7 mph - N/A   Clear
10:58 AM 52.0 °F - - N/A% 29.94 in 9.0 mi NNW 11.5 mph - N/A   Clear
11:58 AM 53.1 °F - 39.0 °F 59% 29.94 in 10.0 mi NW 10.4 mph - N/A   Clear
12:58 PM 57.0 °F - 39.9 °F 53% 29.94 in 10.0 mi NNW 11.5 mph - N/A   Clear
1:58 PM 59.0 °F - 48.9 °F 69% 29.94 in 10.0 mi NW 11.5 mph - N/A   Clear
2:58 PM 62.1 °F - 57.9 °F 86% 29.94 in 10.0 mi NNW 10.4 mph - N/A   Clear
3:58 PM 63.0 °F - 59.0 °F 87% 29.93 in 10.0 mi WNW 11.5 mph - N/A   Clear
4:58 PM 64.0 °F - 62.1 °F 93% 29.93 in 10.0 mi North 11.5 mph - N/A   Clear
5:58 PM 64.0 °F - 63.0 °F 96% 29.92 in 9.0 mi Variable 6.9 mph - N/A   Clear
6:58 PM 63.0 °F - 63.0 °F 100% 29.92 in 10.0 mi NNE 8.1 mph - N/A   Clear
7:58 PM 62.1 °F - 61.0 °F 96% 29.92 in 10.0 mi North 8.1 mph - N/A   Clear
8:58 PM 60.1 °F - 57.9 °F 93% 29.92 in 10.0 mi North 8.1 mph - N/A   Clear
9:58 PM 59.0 °F - 55.9 °F 90% 29.93 in 10.0 mi North 8.1 mph - N/A   Clear
10:58 PM 55.9 °F - 53.1 °F 90% 29.94 in 10.0 mi North 6.9 mph - N/A   Clear
11:58 PM 52.0 °F - 48.9 °F 89% 29.94 in 10.0 mi North 10.4 mph - N/A   Clear